Regional Weather Roundup
Issued by NWS

Home | Current Version | Previous Version | Text Only | Print | Product List | Glossary Off
Versions: 1 2 3 4 5 6 7 8 9 10 11 12 13 14 15 16 17 18 19 20 21 22 23 24 25 26 27 28 29 30 31 32 33 34 35 36 37 38 39 40 41 42 43 44 45 46 47 48 49 50

000
ASUS43 KLMK 200610
RWRKY
KENTUCKY REGIONAL WEATHER ROUNDUP
NATIONAL WEATHER SERVICE LOUISVILLE KY
200 AM EDT MON OCT 20 2014

NOTE "FAIR" INDICATES FEW OR NO CLOUDS BELOW 12,000 FEET
WITH NO SIGNIFICANT WEATHER AND/OR OBSTRUCTIONS TO VISIBILITY.

KYZ001>023-026-027-061>063-070>075-200700-
WESTERN AND SOUTH CENTRAL KENTUCKY

CITY           SKY/WX    TMP DP  RH WIND       PRES   REMARKS
PADUCAH        PTCLDY    47  44  90 CALM      30.07S
HENDERSON      PTCLDY    45  39  81 CALM      30.07F
OWENSBORO      PTCLDY    46  45  97 CALM      30.07S
HOPKINSVILLE   CLOUDY    48  48 100 CALM      30.08R
BOWLING GREEN  MOCLDY    47  44  90 CALM      30.08S
GLASGOW        MOCLDY    43  43 100 CALM      30.08F
$$

KYZ024-025-028>034-038-045-046-053-200700-
NORTH CENTRAL KENTUCKY

CITY           SKY/WX    TMP DP  RH WIND       PRES   REMARKS
LOUISVILLE/SDF PTCLDY    47  43  86 SE7       30.06S
LOUISVILLE/LOU PTCLDY    46  43  89 CALM      30.07S
FORT KNOX      MOCLDY    44  42  93 SW3       30.05F
$$

KYZ035>037-039>044-047>052-055>060-089>105-200700-
NORTHEAST KENTUCKY

CITY           SKY/WX    TMP DP  RH WIND       PRES   REMARKS
LEXINGTON      MOCLDY    46  40  79 S5        30.07S
COVINGTON      CLOUDY    45  40  82 SW3       30.05S
FRANKFORT      MOCLDY    42  40  92 CALM      30.06S
$$

KYZ054-064>069-076>088-106>120-200700-
SOUTHEAST KENTUCKY

CITY           SKY/WX    TMP DP  RH WIND       PRES   REMARKS
JACKSON        MOCLDY    44  39  82 CALM      30.07S
LONDON         MOCLDY    44  40  85 CALM      30.08F
SOMERSET       MOCLDY    43  43 100 CALM      30.09S
MIDDLESBORO    MOCLDY    41  41  99 CALM      30.11F
MONTICELLO     FOG       48  44  86 CALM      30.09F VSB 1/2
$$




USA.gov is the U.S. government's official web portal to all federal, state and local government web resources and services.